Location: Bemmer
(51.5498°N, 5.6249°E)
Time: 12:11:03
(UTC+00:00)

Cosmos 1354 Rocket - Pass Details

Date: 03 March 2021
Orbit: 765 x 782 km, 74.0° (Epoch: 16 April)

Event Time Altitude Azimuth Distance (km) Brightness Sun altitude
Rises 18:17:23 0° 336° (NNW) 3,255 7.6 -9.5°
Reaches altitude 10° 18:19:48 10° 338° (NNW) 2,322 6.8 -9.8°
Maximum altitude 18:25:04 71° 63° (ENE) 813 4.0 -10.7°
Drops below altitude 10° 18:30:16 10° 148° (SSE) 2,300 6.1 -11.5°
Sets 18:32:39 0° 150° (SSE) 3,221 6.9 -11.8°
